User: anonymous   Login
Location: B?ezina
(49.8085°N, 13.6013°E)
Time: 04:07:22
(UTC+00:00)
Language:

Cosmos 1842 - Orbit

View from above orbital plane
View from above orbital plane
View from above satellite
View from above satellite

Ground track
Ground track

The orbit data is extracted from the following two-line orbital elements,

1 17911U 87038A   25198.37693571  .00011150  00000-0  27065-3 0  9992
2 17911  82.5110 162.0721 0008924  76.6244 283.5996 15.40836677 89252
Epoch (UTC): 17 July 2025 09:02:47
Eccentricity: 0.0008924
inclination: 82.5110°
perigee height: 437 km
apogee height: 450 km
right ascension of ascending node: 162.0721°
argument of perigee: 76.6244°
revolutions per day: 15.40836677
mean anomaly at epoch: 283.5996°
orbit number at epoch: 8925

The dashed part of the orbit path shows where the satellite is in the earth's shadow,  

DLR